Vertical_Velocity
-0 -1 -0 1 0 2 -4 -10 -1 3 6 1 -3 -1 -6 2 3 -4 -1 4 6 -2 0 1 1 1 1 0 0 -0 0 -1 -1 -2 -1 0 1 0 -0 0 1 1 -1 0 1 0 1 -0 -1
-1 -1 -0 1 -2 -1 -7 -4 -1 5 3 2 1 1 -1 1 1 0 -1 -2 5 0 -0 0 2 2 1 1 1 1 -0 -1 -0 -2 -1 -1 0 0 0 -0 0 0 1 -0 0 1 0 1 0
0 0 0 -0 -2 -3 -6 1 -1 -3 -2 1 1 3 3 -6 9 1 -0 -11 13 -0 5 1 2 -1 1 1 2 1 2 1 0 -1 -1 -0 -2 -1 -0 -1 -0 0 -1 1 -1 1 1 1 0
1 -0 -0 -2 -3 -4 -2 15 -0 5 -7 1 4 -4 3 1 -3 4 -1 -8 8 4 3 5 1 2 1 1 1 1 0 0 1 2 1 -0 0 -1 -0 -1 -1 0 -0 -0 0 -1 -0 1 1
-0 -0 1 3 -1 3 2 0 -2 3 -1 -10 -3 9 -10 -0 2 -0 -1 -8 5 2 5 -2 1 2 5 -1 4 2 3 1 0 1 2 1 1 0 0 -1 -1 -1 -1 -1 -1 -0 -1 -1 1
2 0 1 2 3 -4 5 0 -1 -3 -2 -6 -2 -8 8 -2 -6 6 0 -7 3 6 4 -0 1 -1 0 3 3 1 3 2 3 2 2 2 2 2 -1 0 1 -0 -1 -0 -1 -1 -1 -1 -1
0 1 1 1 -2 -5 -6 -2 0 3 -3 -4 -10 -4 -6 7 -8 -1 13 -3 -7 -0 3 3 -1 3 1 -0 0 3 2 2 2 2 2 3 0 -1 2 0 0 1 1 0 -0 0 -1 -1 -1
2 -2 -3 -1 -3 -0 -2 -4 -3 -2 1 -9 1 -4 -7 -5 0 -3 -0 1 -8 -2 7 2 -1 -0 2 2 1 0 2 2 1 3 1 2 2 0 -1 1 1 0 1 1 0 -1 1 1 -1
-2 -3 -2 -2 -5 -3 -1 -3 -7 -2 -0 -1 -4 -7 -9 -11 -12 -0 3 -0 4 -2 -4 3 1 1 4 -0 2 3 1 1 3 1 -0 3 3 1 0 -0 0 0 1 0 -0 0 1 1 -1
-2 -3 -2 -2 -2 -5 -1 -2 2 1 -8 -5 0 -5 -6 -6 -8 -7 -7 2 -1 1 1 -4 0 1 2 2 3 4 3 2 -0 2 2 -1 -1 2 2 1 -1 -1 -0 1 -0 -0 0 1 -0
-2 -0 -4 -5 -1 -1 -4 -6 0 1 2 -6 5 3 1 -6 -5 -3 -5 -3 7 2 -0 1 -2 6 2 6 -1 -3 1 4 2 1 -1 2 1 0 -1 1 2 1 -0 0 1 0 0 0 -0
-2 -2 -3 -2 -2 0 -1 1 0 -3 -4 -1 -6 -7 -4 -4 -4 -11 -5 1 -1 10 4 3 3 0 14 -1 4 0 3 0 2 3 4 -1 0 2 1 0 -0 2 -1 -0 0 1 -0 -0 -1
-2 -2 -1 -2 0 1 0 1 3 2 -3 -1 -0 -5 -4 -2 0 2 -7 -6 2 5 9 4 5 6 4 11 2 1 3 3 2 4 1 3 3 1 2 -1 1 3 0 -0 -0 -1 0 1 -1
-1 -1 1 -3 2 2 -2 -1 1 -2 1 -2 3 4 -2 -4 -1 3 4 2 7 4 7 2 7 8 4 5 6 3 2 1 2 2 0 1 1 2 3 0 0 2 1 -0 -2 0 -1 0 -1
2 -1 2 2 -3 -7 3 -3 -2 -0 4 6 -2 -6 -4 -1 -4 -8 -2 1 1 5 -0 14 -1 5 4 4 1 6 5 -1 -0 2 3 1 -0 -2 -0 1 2 1 -0 2 1 2 1 0 -1
-1 2 0 -0 5 4 -1 -9 -5 -5 -1 -3 -1 0 -0 -2 -5 -10 -3 -2 -4 1 -2 2 7 2 6 3 3 5 4 6 -2 -3 -1 0 0 -1 -1 1 2 -2 0 -0 1 0 2 2 -1
0 -2 0 -1 -1 1 5 -1 -2 1 -7 -6 2 1 0 3 0 -3 -2 -12 -7 -3 1 1 1 1 3 4 -1 3 4 5 4 0 -0 -4 1 1 -1 0 1 -1 -0 1 1 -0 -2 -0 0
-1 -0 -2 1 -2 -8 -1 1 4 0 -1 -2 -2 -2 -2 -2 -2 0 -5 -8 -9 -5 -0 -2 2 -1 -3 3 1 -2 1 3 4 3 1 -1 -3 -2 2 2 1 -1 0 -1 -3 2 -1 -2 1
1 -1 2 -5 -4 4 -0 1 -1 -3 -3 2 -1 -1 -2 -1 -2 -5 -6 -4 -5 -0 -2 -1 -2 -3 -2 -2 -0 0 -2 -0 1 2 1 1 1 -2 -1 -0 0 -2 -1 -1 -3 -2 -1 1 -1
-1 -0 -4 -1 -4 1 -3 -1 -2 2 5 -1 -1 -4 -1 -2 -1 -3 -7 -7 -7 -6 -4 -2 -2 -1 -3 -3 -2 -2 0 -1 2 1 0 -1 1 -1 0 1 1 -1 0 1 -2 -5 -4 -2 2
-4 -2 -2 -4 5 -5 -3 -4 2 0 1 0 -5 -3 -1 -2 -1 -3 -3 -5 -3 -6 -4 -3 -3 -3 -4 -2 1 2 -3 1 -0 2 1 -1 0 -1 -2 0 0 -1 -2 1 0 -1 -4 -1 -1
2 -3 -3 -6 -2 -1 -7 -6 -1 -5 -3 -3 -3 -2 -1 -0 0 -0 -2 -2 -3 -4 -4 -1 1 -2 -3 -2 -1 -1 -2 -1 -1 -0 -0 -0 -2 -2 -1 -0 2 2 -2 1 -0 -1 -1 -5 5
-3 -1 1 -1 -3 1 -4 -4 -2 -4 -2 -2 1 -1 -2 -1 -1 -0 -1 0 -2 -1 -3 -2 -0 0 -3 -1 0 1 -0 0 1 -0 0 0 1 1 1 0 -2 -0 -1 -2 -1 0 -0 0 -3
-1 -2 -6 -3 -1 3 -2 -1 4 -5 -0 -2 -2 1 -1 -2 -0 -0 -2 -1 1 -1 -2 -2 -0 2 2 -2 -4 -2 1 3 4 1 -2 -2 -2 -2 -0 1 0 -1 0 0 -2 -1 0 0 -3
-3 -3 -5 -6 -1 2 2 -2 1 -2 -2 2 -2 0 -3 -0 2 0 -1 -1 -2 1 -0 -1 -0 0 0 1 1 -2 -4 -4 -4 -3 -1 1 2 2 1 1 1 0 2 1 0 -2 2 -0 1
-2 0 0 -11 -6 1 -2 -0 -1 -3 1 -1 0 1 1 2 -0 2 2 2 -1 -1 2 0 -2 1 1 0 -1 -0 -1 -2 -2 -2 -2 -2 -1 -4 -5 -3 -2 -1 -1 0 -0 2 2 -1 1
-1 -1 -1 -2 3 -2 -0 -1 -0 1 -3 -0 3 -1 0 -1 1 -1 0 3 3 1 -0 2 1 -2 1 2 2 1 2 2 2 -0 -1 -1 0 1 0 0 0 -2 -1 0 1 1 0 -1 -2
-0 -1 -7 -2 -7 -7 1 5 -3 4 -2 0 1 -0 5 1 1 -0 -1 -1 2 3 1 2 1 2 -2 -1 1 2 2 2 1 2 2 2 -0 1 -0 -1 -1 -1 -0 -2 -1 -1 -0 1 -2
2 0 -2 -0 2 -4 -10 13 -7 -1 -1 -7 -2 -1 1 3 1 0 1 2 2 1 2 1 1 -0 2 1 -0 -1 1 2 2 3 2 1 2 -0 2 -0 -1 -2 -1 -1 -1 -2 -2 -2 -2
4 0 -1 2 4 1 1 8 7 -4 -1 -2 -1 -1 5 7 4 -1 -3 -2 -0 0 0 0 2 1 2 1 2 1 -2 -1 1 1 0 0 0 -2 -2 -1 0 -0 -1 -3 -1 -1 -1 -1 -1
Height
5873 5875 5876 5877 5880 5878 5875 5875 5875 5877 5879 5877 5875 5875 5873 5873 5873 5874 5873 5873 5875 5874 5873 5874 5873 5873 5874 5874 5874 5875 5875 5875 5875 5875 5875 5875 5875 5875 5876 5876 5876 5876 5877 5878 5878 5878 5878 5878 5879
5871 5872 5874 5874 5875 5875 5871 5871 5872 5874 5877 5874 5871 5869 5866 5868 5868 5868 5867 5865 5867 5868 5867 5866 5866 5867 5868 5869 5869 5870 5870 5871 5871 5871 5871 5872 5872 5872 5872 5873 5873 5874 5874 5875 5875 5876 5876 5876 5877
5868 5869 5870 5871 5871 5870 5868 5869 5870 5868 5867 5867 5868 5867 5863 5861 5864 5863 5860 5857 5859 5860 5861 5860 5859 5860 5861 5861 5863 5864 5864 5865 5867 5867 5868 5868 5868 5869 5869 5869 5870 5871 5872 5872 5873 5874 5875 5875 5875
5865 5866 5868 5868 5867 5866 5864 5867 5868 5865 5862 5863 5864 5861 5860 5858 5857 5856 5854 5849 5851 5853 5853 5853 5853 5853 5853 5854 5855 5857 5858 5859 5860 5862 5863 5864 5864 5864 5865 5866 5866 5867 5868 5869 5870 5870 5871 5872 5873
5863 5863 5864 5864 5863 5863 5862 5863 5863 5860 5859 5857 5856 5858 5855 5852 5849 5849 5847 5844 5846 5848 5846 5844 5845 5845 5846 5846 5848 5849 5851 5852 5854 5855 5857 5858 5859 5860 5861 5862 5863 5863 5864 5865 5866 5867 5868 5869 5870
5860 5860 5860 5861 5861 5860 5860 5861 5860 5858 5855 5852 5850 5848 5848 5848 5842 5842 5841 5836 5837 5839 5839 5837 5838 5837 5838 5839 5840 5841 5843 5844 5847 5849 5851 5852 5853 5854 5856 5857 5858 5859 5860 5861 5862 5863 5864 5866 5867
5857 5857 5857 5857 5859 5858 5856 5854 5854 5852 5850 5847 5843 5841 5838 5836 5834 5830 5828 5825 5824 5826 5827 5826 5827 5828 5829 5831 5832 5833 5833 5836 5838 5841 5844 5845 5848 5849 5850 5852 5853 5855 5856 5856 5857 5858 5860 5861 5863
5854 5855 5855 5856 5855 5854 5853 5851 5847 5845 5842 5838 5835 5831 5828 5824 5821 5817 5813 5812 5809 5810 5812 5814 5813 5815 5817 5819 5821 5824 5827 5828 5829 5832 5835 5838 5840 5842 5844 5846 5847 5849 5851 5852 5853 5854 5855 5856 5858
5853 5853 5852 5851 5850 5850 5847 5845 5843 5840 5837 5833 5829 5824 5820 5814 5808 5804 5800 5796 5795 5792 5793 5795 5798 5800 5804 5806 5810 5813 5816 5820 5823 5824 5826 5829 5832 5835 5837 5839 5841 5843 5845 5846 5847 5849 5850 5851 5853
5850 5849 5848 5847 5846 5845 5842 5841 5839 5837 5832 5827 5822 5816 5810 5803 5798 5793 5786 5779 5777 5777 5775 5775 5780 5785 5788 5792 5797 5801 5805 5809 5813 5816 5818 5820 5823 5827 5829 5832 5833 5836 5839 5840 5841 5843 5845 5846 5848
5847 5846 5844 5844 5842 5840 5839 5836 5832 5829 5826 5820 5816 5810 5803 5794 5785 5780 5775 5768 5760 5754 5755 5756 5757 5766 5772 5778 5782 5788 5792 5798 5802 5805 5808 5813 5815 5818 5821 5824 5826 5828 5831 5833 5835 5837 5839 5840 5842
5843 5843 5842 5841 5839 5836 5834 5832 5829 5824 5820 5815 5809 5802 5795 5786 5777 5764 5755 5747 5738 5734 5732 5733 5740 5745 5751 5759 5767 5772 5781 5786 5791 5796 5800 5802 5805 5809 5812 5815 5818 5821 5823 5825 5828 5830 5832 5834 5836
5841 5841 5839 5837 5835 5833 5829 5826 5824 5820 5814 5808 5801 5794 5787 5778 5766 5752 5737 5721 5711 5709 5709 5711 5718 5725 5731 5739 5748 5757 5767 5775 5781 5786 5791 5795 5798 5800 5804 5807 5809 5812 5814 5817 5819 5822 5824 5826 5828
5838 5837 5836 5833 5830 5828 5825 5822 5819 5815 5809 5802 5795 5786 5776 5767 5756 5741 5722 5700 5682 5679 5684 5687 5695 5704 5712 5721 5731 5740 5750 5760 5769 5775 5780 5785 5790 5793 5796 5798 5801 5803 5805 5808 5811 5813 5816 5818 5821
5835 5834 5832 5829 5827 5825 5821 5818 5815 5810 5804 5796 5787 5778 5768 5757 5744 5726 5704 5677 5658 5651 5655 5667 5674 5686 5695 5705 5716 5726 5735 5744 5754 5762 5769 5775 5780 5784 5788 5792 5793 5795 5798 5800 5803 5805 5807 5810 5812
5832 5830 5828 5826 5825 5823 5819 5812 5808 5803 5797 5790 5781 5773 5761 5748 5733 5714 5692 5664 5643 5634 5637 5649 5660 5671 5684 5693 5703 5714 5724 5733 5742 5751 5758 5765 5771 5776 5780 5784 5787 5789 5791 5794 5796 5799 5801 5803 5805
5828 5826 5825 5823 5819 5814 5813 5809 5804 5797 5789 5783 5777 5767 5755 5740 5726 5709 5689 5660 5640 5635 5635 5643 5652 5663 5673 5683 5691 5704 5713 5723 5732 5741 5749 5756 5762 5767 5772 5776 5779 5782 5784 5787 5790 5792 5794 5796 5798
5824 5823 5820 5816 5815 5810 5806 5803 5797 5791 5785 5778 5771 5761 5749 5736 5723 5707 5687 5664 5645 5638 5637 5642 5652 5661 5671 5681 5686 5695 5706 5715 5725 5732 5740 5747 5752 5758 5763 5767 5771 5774 5777 5779 5782 5785 5786 5788 5789
5820 5819 5816 5812 5808 5806 5801 5796 5792 5786 5781 5774 5765 5756 5744 5733 5720 5706 5692 5674 5656 5645 5642 5645 5652 5661 5669 5677 5684 5690 5699 5708 5716 5724 5731 5738 5743 5748 5754 5758 5761 5764 5767 5770 5772 5774 5777 5779 5779
5815 5813 5810 5807 5803 5799 5794 5791 5787 5781 5775 5767 5759 5751 5741 5731 5720 5706 5693 5679 5665 5657 5652 5653 5656 5663 5670 5677 5682 5688 5694 5702 5710 5717 5723 5729 5735 5739 5743 5747 5751 5755 5757 5760 5762 5763 5765 5767 5768
5809 5806 5804 5801 5798 5792 5787 5784 5780 5773 5767 5760 5753 5746 5739 5730 5720 5708 5697 5687 5677 5668 5663 5662 5663 5666 5671 5675 5680 5685 5692 5698 5704 5711 5715 5720 5725 5730 5734 5737 5741 5744 5746 5749 5750 5751 5753 5754 5755
5804 5800 5797 5793 5791 5787 5782 5776 5772 5765 5760 5755 5749 5742 5736 5728 5720 5711 5701 5693 5686 5678 5673 5671 5671 5671 5672 5675 5679 5683 5688 5693 5699 5704 5708 5711 5716 5720 5724 5727 5730 5732 5735 5737 5738 5739 5741 5741 5743
5797 5792 5789 5785 5781 5779 5775 5770 5767 5760 5755 5749 5744 5738 5732 5725 5719 5712 5705 5698 5691 5685 5681 5676 5674 5674 5675 5677 5679 5681 5685 5689 5693 5697 5701 5704 5707 5710 5714 5717 5720 5721 5723 5725 5726 5727 5728 5729 5729
5789 5785 5780 5777 5775 5772 5768 5764 5762 5754 5748 5743 5738 5733 5728 5722 5717 5711 5706 5700 5695 5690 5685 5682 5679 5677 5676 5676 5678 5680 5683 5685 5688 5691 5693 5696 5698 5701 5704 5706 5708 5710 5712 5713 5714 5715 5716 5716 5716
5781 5777 5772 5770 5766 5764 5758 5754 5751 5747 5742 5737 5733 5727 5723 5719 5714 5708 5704 5701 5696 5692 5688 5684 5682 5680 5678 5677 5677 5678 5680 5682 5683 5685 5686 5688 5689 5691 5694 5696 5697 5699 5700 5701 5702 5703 5703 5703 5704
5773 5770 5765 5759 5757 5755 5751 5745 5743 5740 5737 5730 5727 5724 5719 5715 5710 5706 5702 5698 5695 5692 5689 5685 5682 5680 5679 5678 5677 5676 5677 5677 5678 5680 5681 5681 5682 5683 5684 5685 5687 5688 5689 5690 5691 5691 5691 5692 5692
5764 5761 5757 5751 5747 5744 5743 5740 5734 5729 5727 5723 5719 5715 5712 5708 5705 5701 5698 5695 5692 5689 5687 5684 5681 5679 5677 5676 5674 5674 5673 5673 5673 5673 5673 5673 5674 5674 5675 5677 5678 5678 5679 5680 5681 5681 5681 5682 5681
5757 5753 5749 5743 5735 5731 5731 5731 5727 5716 5716 5715 5711 5707 5705 5701 5698 5695 5692 5689 5687 5684 5682 5680 5678 5676 5675 5673 5672 5670 5669 5668 5668 5667 5666 5666 5666 5667 5667 5667 5668 5669 5670 5671 5671 5672 5671 5671 5671
5747 5744 5739 5735 5729 5722 5716 5726 5716 5709 5701 5701 5700 5699 5697 5695 5691 5688 5687 5684 5681 5678 5676 5674 5672 5671 5669 5668 5667 5666 5665 5664 5663 5662 5661 5661 5660 5659 5659 5659 5659 5659 5660 5661 5661 5662 5662 5661 5660
5735 5733 5728 5722 5720 5717 5707 5713 5711 5702 5694 5695 5693 5692 5690 5687 5684 5680 5679 5677 5674 5671 5669 5667 5665 5664 5663 5661 5660 5658 5657 5657 5656 5655 5655 5654 5653 5652 5652 5650 5649 5649 5650 5651 5652 5652 5652 5651 5649